Location: Aranbee
(34.0885°N, 118.2342°W)
Time: 21:58:33
(UTC+00:00)

Vanguard 3 - Visible Passes

Search period start: 25 November 2020 00:00
Search period end: 05 December 2020 00:00
Orbit: 508 x 3262 km, 33.3° (Epoch: 25 November)

Date Brightness Start Highest point End Pass type
(mag) Time Alt. Az. Time Alt. Az. Time Alt. Az.
25 Nov 10.7 09:31:07 15° ESE 09:31:07 15° ESE 09:33:00 10° ESE visible
25 Nov 9.5 11:35:41 37° SSW 11:35:41 37° SSW 11:48:14 10° SE visible
25 Nov 10.6 13:43:10 10° WSW 13:49:43 15° SSW 13:57:41 10° S visible
26 Nov 10.1 10:25:58 27° SE 10:25:58 27° SE 10:32:00 10° SE visible
26 Nov 10.0 12:30:32 20° SW 12:33:58 22° SSW 12:44:39 10° SSE visible
27 Nov 9.9 11:20:49 29° S 11:20:49 29° S 11:29:45 10° SSE visible
27 Nov 10.6 13:30:56 10° SW 13:33:01 10° SSW 13:35:14 10° SSW visible
28 Nov 10.5 10:11:05 18° SE 10:11:05 18° SE 10:14:02 10° SE visible
28 Nov 10.2 12:15:40 16° SW 12:17:23 17° SSW 12:25:10 10° S visible
29 Nov 8.7 02:13:51 10° S 02:15:12 11° SSE 02:15:46 11° SE visible
29 Nov 10.3 11:05:55 20° S 11:05:55 20° S 11:11:08 10° SSE visible
30 Nov 8.7 03:09:15 10° SW 03:10:36 17° SSW 03:10:36 17° SSW visible
30 Nov 10.5 12:00:45 12° SSW 12:00:55 12° SSW 12:04:32 10° S visible
01 Dec 8.4 01:56:01 10° SSW 01:59:06 17° SSE 02:00:51 13° SE visible
01 Dec 10.6 10:50:59 12° S 10:50:59 12° S 10:52:14 10° SSE visible
02 Dec 7.9 02:52:37 10° SW 02:55:39 30° SSW 02:55:39 30° SSW visible
03 Dec 8.4 01:38:39 10° SSW 01:43:02 23° SSE 01:45:53 12° ESE visible
03 Dec 9.6 03:50:17 10° WSW 03:50:27 11° WSW 03:50:27 11° WSW visible
04 Dec 7.0 02:35:58 10° WSW 02:40:39 45° SSE 02:40:39 45° SSE visible
